[[{"header":{"parameterUnit":"m.s-1","parameterCategory":1,"la1":30.2991,"la2":30.254,"lo1":-89.0895,"lo2":-89.0444,"dy":0.0017,"dx":0.0017,"nx":28,"ny":28,"refTime":"2026-02-17T03:00:00:Z","depth":0,"parameterNumber":2,"parameterNumberName":"U-component_of_WINDS"},"data":[0,0,0,0,0,0,0,0,0,0,0,0,0,0,0,0,0,0,0,0,0,0,0,0,0,0,0,0,0,0,0,0,0,0,0,0,0,0,0,0,0,0,0,0,0,0,0,0,0,0,0,0,0,0,0,0,0,0,0.4374,0.4375,0,0.4388,0.4389,0.4389,0.4364,0.4363,0.4362,0.4361,0.4377,0.4378,0.438,0,0,0,0,0,0,0,0,0,0,0,0,0,0.4327,0.4328,0.4374,0.4375,0.4375,0.4388,0.4389,0.4389,0.4364,0.4363,0.4362,0.4361,0.4377,0.4378,0.438,0,0,0,0,0,0,0,0,0,0,0,0,0,0.4345,0.4329,0.4374,0.4364,0.4363,0.4388,0.4389,0.4389,0.4364,0.4363,0.4361,0.436,0.4376,0.4378,0.438,0.4417,0,0,0.4386,0.4386,0,0,0,0,0,0,0,0,0.4344,0.4347,0.4365,0.4365,0.4364,0.4373,0.4378,0.4398,0.4364,0.4364,0.4361,0.436,0.4377,0.4379,0.4384,0.4418,0.4418,0.4386,0.4387,0.4388,0.4388,0,0,0,0,0,0,0,0.4343,0.4346,0.438,0.4366,0.4365,0.4359,0.436,0.4382,0.4377,0.4364,0.4362,0.4364,0.4376,0.4382,0.4384,0.4418,0.4386,0.4387,0.4388,0.4389,0.4483,0.4484,0,0,0,0,0,0,0.4343,0.4345,0.438,0.438,0.4351,0.4361,0.4362,0.4371,0.4377,0.4377,0.4365,0.4362,0.438,0.4382,0.4385,0.4429,0.4388,0.4389,0.439,0.4482,0.4483,0.4485,0,0,0,0,0,0,0.4342,0.4346,0.4379,0.4362,0.4366,0.4363,0.4374,0.4372,0.4378,0.4378,0.4377,0.4372,0.4379,0.4382,0.4409,0.4429,0.439,0.4392,0.448,0.4482,0.4484,0.4516,0,0,0,0,0,0,0.4341,0.4346,0.436,0.4363,0.4367,0.4403,0.4375,0.4373,0.4381,0.4378,0.4384,0.4384,0.4378,0.4406,0.4411,0.4431,0.4393,0.4478,0.4481,0.4483,0.4514,0.4519,0.4524,0,0,0,0,0,0.4339,0.4369,0.436,0.4365,0.4384,0.4404,0.4406,0.4399,0.4383,0.4397,0.4397,0.4384,0.4426,0.4409,0.4414,0.4435,0.4477,0.448,0.4483,0.4511,0.4518,0.4524,0,0,0,0,0,0,0.4368,0.4369,0.436,0.4391,0.4398,0.4399,0.4417,0.4406,0.4418,0.4415,0.4405,0.4406,0.4435,0.4438,0.4419,0.4471,0.4449,0.4453,0.4469,0.4475,0.448,0.448,0.4395,0,0,0,0,0,0.4378,0.4394,0.4393,0.4421,0.4425,0.442,0.4429,0.4422,0.4428,0.4431,0.4433,0.444,0.4455,0.4465,0.4479,0.4513,0.4515,0.453,0.4535,0.454,0.4544,0.4563,0.457,0.4495,0.4495,0.4495,0,0,0.44,0.4402,0.4412,0.4427,0.4431,0.4448,0.4423,0.4442,0.4454,0.4434,0.446,0.4461,0.4468,0.4499,0.4513,0.4502,0.4565,0.4544,0.4547,0.4549,0.4567,0.4574,0.458,0.4497,0.4497,0.4496,0,0,0.4447,0.4449,0.4473,0.4478,0.4484,0.4481,0.4486,0.449,0.449,0.4515,0.45,0.4515,0.4541,0.4547,0.4553,0.4602,0.4591,0.4607,0.4635,0.4654,0.466,0.4665,0.4683,0.469,0.461,0.4611,0.4611,0,0.4472,0.4497,0.4487,0.4506,0.4514,0.4496,0.452,0.4525,0.4536,0.4541,0.4528,0.456,0.4564,0.4596,0.4608,0.4613,0.462,0.4606,0.4659,0.4665,0.4669,0.4687,0.4693,0.4612,0.4612,0.4612,0.4612,0,0.4528,0.4545,0.4563,0.4574,0.4583,0.4605,0.4599,0.4609,0.4602,0.46,0.4626,0.4629,0.4643,0.465,0.4643,0.4682,0.4675,0.4661,0.4639,0.4679,0.4695,0.4701,0.4615,0.4615,0.4614,0.4613,0,0,0.4595,0.4599,0.4606,0.4611,0.4616,0.4629,0.465,0.4664,0.4673,0.4681,0.4699,0.4721,0.4708,0.4715,0.4708,0.4724,0.4764,0.4709,0.4709,0.4719,0.4807,0.4818,0.4826,0.4756,0.4757,0.4758,0.4807,0,0.4642,0.4678,0.467,0.4706,0.4722,0.4704,0.4723,0.4728,0.4727,0.4741,0.4739,0.4755,0.4737,0.4741,0.4756,0.4756,0.4781,0.4752,0.4773,0.4774,0.4773,0.4834,0.4846,0.4892,0.4813,0.4814,0.4815,0,0.4703,0.4712,0.475,0.4753,0.4759,0.4776,0.4787,0.48,0.4806,0.4804,0.4812,0.4802,0.4823,0.48,0.483,0.481,0.4818,0.4819,0.4821,0.4823,0.4798,0.4839,0.4906,0.4913,0.4824,0.4823,0.4823,0,0.4749,0.4771,0.4796,0.4801,0.4805,0.4817,0.4819,0.4824,0.4832,0.4842,0.4848,0.486,0.4867,0.4877,0.4871,0.4855,0.4902,0.4878,0.4902,0.4902,0.4913,0.4913,0.4984,0.4917,0.4917,0.4917,0.4917,0,0.4803,0.4827,0.4817,0.4833,0.4859,0.4849,0.4875,0.4875,0.488,0.4896,0.4881,0.4896,0.4887,0.4901,0.4897,0.4922,0.4925,0.4925,0.4924,0.4927,0.4927,0.4933,0.493,0.4919,0.4918,0.4918,0.4918,0,0.4859,0.4854,0.488,0.4882,0.4882,0.4902,0.4903,0.4918,0.4915,0.4935,0.4939,0.4935,0.4952,0.4946,0.4964,0.4961,0.4993,0.4988,0.4991,0.499,0.5014,0.5013,0.5092,0.5102,0.5028,0.5029,0.503,0,0.4895,0.4913,0.4916,0.4925,0.4928,0.4943,0.4952,0.4942,0.4952,0.496,0.4974,0.4989,0.5,0.5027,0.5026,0.504,0.5035,0.5061,0.5037,0.5039,0.5036,0.5035,0.5037,0.5067,0.5068,0.5068,0.5069,0,0.4958,0.4955,0.4967,0.4979,0.4989,0.4998,0.5006,0.5014,0.5005,0.5017,0.5033,0.5042,0.506,0.5075,0.5087,0.509,0.5078,0.5077,0.5083,0.5087,0.5089,0.5089,0.5006,0.5075,0.5075,0.5074,0.5074,0.5073,0.5006,0.5021,0.5026,0.504,0.5045,0.5052,0.5066,0.5065,0.5078,0.5092,0.5085,0.5104,0.511,0.5125,0.5129,0.5144,0.5134,0.5143,0.5145,0.5148,0.5151,0.5085,0.5146,0.5146,0.5146,0.5146,0.5146,0,0.5069,0.5071,0.5085,0.5096,0.5107,0.5095,0.5102,0.5113,0.513,0.5136,0.5147,0.5166,0.5181,0.518,0.5194,0.5206,0.5201,0.521,0.521,0.5211,0.5159,0.5153,0.5214,0.5214,0.5214,0.5214,0.5214,0.5214,0.5104,0.5129,0.5126,0.5153,0.5155,0.5173,0.5179,0.5186,0.519,0.5212,0.5224,0.5224,0.5227,0.5241,0.5254,0.5253,0.526,0.5271,0.5268,0.5221,0.5214,0.5208,0.5202,0.5272,0.5272,0.5318,0.5319,0.5319]},{"header":{"parameterUnit":"m.s-1","parameterCategory":1,"la1":30.2991,"la2":30.254,"lo1":-89.0895,"lo2":-89.0444,"dy":0.0017,"dx":0.0017,"nx":28,"ny":28,"refTime":"2026-02-17T03:00:00:Z","depth":0,"parameterNumber":3,"parameterNumberName":"V-component_of_WINDS"},"data":[0,0,0,0,0,0,0,0,0,0,0,0,0,0,0,0,0,0,0,0,0,0,0,0,0,0,0,0,0,0,0,0,0,0,0,0,0,0,0,0,0,0,0,0,0,0,0,0,0,0,0,0,0,0,0,0,0,0,4.1059,4.106,0,4.1156,4.1157,4.1158,4.1147,4.1145,4.1144,4.1142,4.1238,4.1242,4.1246,0,0,0,0,0,0,0,0,0,0,0,0,0,4.086,4.0864,4.1059,4.106,4.1062,4.1156,4.1157,4.1158,4.1147,4.1145,4.1143,4.1141,4.1237,4.1241,4.1246,0,0,0,0,0,0,0,0,0,0,0,0,0,4.0951,4.0865,4.1059,4.1067,4.1069,4.1156,4.1157,4.1159,4.1147,4.1145,4.1143,4.1141,4.1235,4.1241,4.1247,4.133,0,0,4.1265,4.1268,0,0,0,0,0,0,0,0,4.0946,4.0958,4.1065,4.1067,4.1069,4.1137,4.1122,4.1216,4.1148,4.1118,4.1142,4.1139,4.1206,4.1214,4.1237,4.1335,4.1339,4.1266,4.1269,4.1272,4.1273,0,0,0,0,0,0,0,4.094,4.0954,4.1097,4.1066,4.1069,4.1065,4.1075,4.114,4.1173,4.112,4.1119,4.1131,4.1207,4.1232,4.1239,4.134,4.1265,4.1271,4.1274,4.1277,4.1511,4.1513,0,0,0,0,0,0,4.0932,4.0949,4.1094,4.11,4.1001,4.107,4.1082,4.1117,4.1173,4.1179,4.1133,4.113,4.1223,4.1233,4.1243,4.1345,4.1272,4.1277,4.1281,4.1508,4.1511,4.1514,0,0,0,0,0,0,4.0927,4.0945,4.109,4.1024,4.1043,4.1076,4.1116,4.1121,4.1146,4.1183,4.1188,4.1153,4.1221,4.1234,4.1309,4.1348,4.128,4.1285,4.1505,4.1509,4.1513,4.155,0,0,0,0,0,0,4.0922,4.0943,4.0976,4.1025,4.1046,4.1156,4.1119,4.1124,4.1156,4.1154,4.1203,4.1209,4.122,4.13,4.1315,4.1355,4.129,4.1502,4.1507,4.1512,4.1545,4.1554,4.1562,0,0,0,0,0,4.0915,4.0982,4.0978,4.0996,4.1089,4.1158,4.117,4.1184,4.116,4.1193,4.1216,4.1207,4.1341,4.1308,4.1324,4.1367,4.1499,4.1505,4.1511,4.1541,4.1553,4.1562,0,0,0,0,0,0,4.0936,4.0989,4.0985,4.107,4.111,4.1156,4.1199,4.1195,4.1241,4.1237,4.125,4.1261,4.1337,4.1359,4.1321,4.1451,4.1417,4.1426,4.1434,4.1445,4.1453,4.1447,4.1295,0,0,0,0,0,4.095,4.1004,4.1047,4.1118,4.1138,4.1165,4.1196,4.1202,4.1244,4.126,4.1289,4.1329,4.138,4.1413,4.1462,4.1547,4.1558,4.1585,4.1593,4.16,4.1609,4.1656,4.1669,4.1534,4.1534,4.1533,0,0,4.0981,4.1016,4.1049,4.1123,4.1154,4.1209,4.1179,4.1238,4.1278,4.1269,4.1342,4.1364,4.1409,4.1489,4.1526,4.151,4.1648,4.1608,4.1613,4.1618,4.1664,4.1676,4.1688,4.1538,4.1537,4.1536,0,0,4.1065,4.1097,4.116,4.1193,4.1242,4.1259,4.1274,4.1321,4.1336,4.141,4.1404,4.1451,4.1538,4.1571,4.1599,4.1695,4.1688,4.171,4.1756,4.1802,4.1812,4.1822,4.1857,4.1869,4.1718,4.1718,4.1718,0,4.1097,4.118,4.1193,4.1253,4.1285,4.128,4.1344,4.1374,4.1436,4.1458,4.1439,4.1549,4.1579,4.1667,4.1691,4.1713,4.1731,4.1705,4.181,4.1819,4.1829,4.1862,4.1876,4.172,4.172,4.172,4.172,0,4.1217,4.1274,4.1319,4.1381,4.1418,4.1479,4.1501,4.1536,4.1539,4.1558,4.1633,4.1668,4.1725,4.1745,4.1748,4.1835,4.1823,4.1807,4.1773,4.1844,4.1876,4.1889,4.1724,4.1723,4.1722,4.1722,0,0,4.1319,4.1386,4.1403,4.1431,4.1484,4.1528,4.1588,4.1645,4.1676,4.1718,4.1769,4.1843,4.1828,4.186,4.1866,4.1906,4.1981,4.1885,4.1886,4.1903,4.2079,4.2093,4.2107,4.1976,4.1979,4.1981,4.2076,0,4.1409,4.1519,4.1532,4.1628,4.1682,4.1677,4.173,4.1767,4.1786,4.1833,4.1853,4.1906,4.1882,4.1901,4.1941,4.1964,4.2017,4.1957,4.2024,4.2026,4.2015,4.2124,4.2138,4.2227,4.2088,4.209,4.2092,0,4.153,4.1578,4.168,4.1726,4.1749,4.1797,4.1849,4.1894,4.1936,4.1947,4.1983,4.1984,4.2045,4.2008,4.2093,4.2052,4.2079,4.2095,4.2098,4.2107,4.2065,4.2137,4.2255,4.2269,4.2112,4.211,4.2109,0,4.1596,4.1685,4.1758,4.1782,4.1837,4.1871,4.1895,4.1935,4.1968,4.2013,4.2035,4.2086,4.2114,4.2153,4.2168,4.2139,4.2252,4.2216,4.2263,4.2263,4.2289,4.2288,4.2415,4.2304,4.2304,4.2303,4.2303,0,4.1697,4.176,4.1789,4.1834,4.1904,4.1918,4.1987,4.2009,4.2044,4.2093,4.2091,4.2136,4.2152,4.2199,4.2211,4.228,4.2292,4.2303,4.2305,4.2304,4.2303,4.2324,4.2319,4.2307,4.2306,4.2305,4.2305,0,4.1783,4.1805,4.1885,4.193,4.1943,4.1993,4.2032,4.2075,4.2093,4.2154,4.217,4.2197,4.2253,4.2271,4.2338,4.2346,4.2427,4.2423,4.2414,4.2415,4.2462,4.2458,4.2609,4.263,4.2503,4.2504,4.2505,0,4.1848,4.1896,4.1948,4.1981,4.2007,4.206,4.2094,4.2108,4.2144,4.2195,4.2232,4.2288,4.2334,4.2423,4.2449,4.25,4.2499,4.2548,4.2506,4.2504,4.2501,4.2499,4.2504,4.2556,4.2558,4.2559,4.256,0,4.196,4.1968,4.2018,4.2072,4.2113,4.2156,4.2197,4.2223,4.2243,4.2283,4.2341,4.2377,4.2446,4.2501,4.2554,4.2577,4.2572,4.2572,4.2586,4.2587,4.258,4.2586,4.2437,4.2569,4.2568,4.2568,4.2567,4.2567,4.2038,4.2082,4.2125,4.2181,4.2213,4.2252,4.2295,4.2318,4.2368,4.2426,4.2431,4.2494,4.2534,4.2604,4.263,4.2678,4.2664,4.2684,4.2689,4.2695,4.2699,4.2571,4.2688,4.2687,4.2687,4.2687,4.2687,0,4.2151,4.2179,4.223,4.2289,4.2332,4.2324,4.2369,4.2406,4.2462,4.25,4.2545,4.2612,4.2666,4.2695,4.2748,4.2782,4.2781,4.2796,4.2794,4.28,4.2708,4.2692,4.2796,4.2796,4.2795,4.2795,4.2795,4.2795,4.2216,4.229,4.2303,4.2392,4.2419,4.2482,4.2508,4.2543,4.2574,4.265,4.2695,4.2714,4.2748,4.2804,4.2853,4.286,4.288,4.2897,4.2903,4.2817,4.2806,4.2796,4.278,4.2901,4.2901,4.2991,4.2992,4.2992]}]]